Location: Gu�tanj
(46.5431°N, 14.9692°E)
Time: 23:34:18
(UTC+00:00)

X-37B - Pass Details

Date: 01 October 2021
Orbit: 385 x 389 km, 45.0° (Epoch: 17 October)

Event Time Altitude Azimuth Distance (km) Brightness Sun altitude
Exits shadow 04:16:04 11° 263° (W) 1,334 2.6 -8.2°
Maximum altitude 04:18:38 28° 203° (SSW) 755 1.8 -7.7°
Drops below altitude 10° 04:21:25 10° 142° (SE) 1,410 3.9 -7.2°
Sets 04:23:39 0° 130° (SE) 2,263 5.3 -6.9°
